Istanbul, Turkey

6:16 AM +03 on September 20, 2017 (GMT +0300)
Ataturk

Weather History for LTBA - November, 2011

Change the Weather History Date:

Wednesday, November 2, 2011

  Actual Average Record
Temperature  
Mean Temperature 54 °F -  
Max Temperature 61 °F 56 °F 76 °F (2012)
Min Temperature 46 °F 47 °F 39 °F (2016)
Degree Days  
Heating Degree Days 12    
Growing Degree Days 4 (Base 50)    
Moisture  
Dew Point 45 °F    
Average Humidity 72    
Maximum Humidity 94    
Minimum Humidity 33    
Precipitation  
Precipitation 0.00 in - - ()
Sea Level Pressure  
Sea Level Pressure 30.16 in    
Wind  
Wind Speed 7 mph ()    
Max Wind Speed 15 mph    
Max Gust Speed -    
Visibility 5.9 miles    
Events Rain    
Averages and records for this station are not official NWS values.
T = Trace of Precipitation, MM = Missing Value Source: Averaged Metar Reports

Daily Weather History Graph

Daily Weather History Graph

Search for Another Location

Airport or City:

Trip Planner

Search our weather history database for the weather conditions in past years. The results will help you decide how hot, cold, wet, or windy it might be!

Date:

Astronomy

Nov. 02, 2011 Rise Set
Actual Time 6:35 AM EET 5:00 PM EET
Civil Twilight 6:07 AM EET 5:28 PM EET
Nautical Twilight 5:34 AM EET 6:01 PM EET
Astronomical Twilight 5:02 AM EET 6:33 PM EET
Moon 12:45 PM EET (11/2) 11:25 PM EET (11/2)
Length of Visible Light 11h 21m
Length of Day
10h 24m
Waxing Crescent, 47% of the Moon is Illuminated
Nov 2
Waxing Crescent
Nov 2
First Quarter
Nov 10
Full
Nov 18
Last Quarter
Nov 25
New

Hourly Weather History & Observations

Time (EET) Temp. Windchill Dew Point Humidity Pressure Visibility Wind Dir Wind Speed Gust Speed Precip Events Conditions
12:20 AM 57.2 °F - 46.4 °F 67% 30.15 in 6.2 mi Variable 4.6 mph - N/A   Scattered Clouds
12:50 AM 53.6 °F - 44.6 °F 72% 30.15 in 6.2 mi Variable 4.6 mph - N/A   Scattered Clouds
1:20 AM 53.6 °F - 44.6 °F 72% 30.15 in 6.2 mi NNE 3.5 mph - N/A   Scattered Clouds
1:50 AM 50.0 °F - 46.4 °F 87% 30.15 in 6.2 mi North 3.5 mph - N/A   Scattered Clouds
2:00 AM 51 °F - 46 °F 76% 30.18 in 6 mi North 3.5 mph - -   Partly Cloudy
2:20 AM 51.8 °F - 48.2 °F 88% 30.15 in 6.2 mi WNW 5.8 mph - N/A   Scattered Clouds
2:50 AM 48.2 °F - 46.4 °F 93% 30.15 in 6.2 mi NW 4.6 mph - N/A   Scattered Clouds
3:20 AM 46.4 °F 42.9 °F 44.6 °F 93% 30.15 in 6.2 mi NNW 6.9 mph - N/A   Scattered Clouds
3:50 AM 48.2 °F - 46.4 °F 93% 30.15 in 6.2 mi North 6.9 mph - N/A   Scattered Clouds
4:20 AM 48.2 °F - 46.4 °F 93% 30.15 in 6.2 mi North 6.9 mph - N/A   Scattered Clouds
4:50 AM 48.2 °F - 46.4 °F 93% 30.15 in 6.2 mi NNW 5.8 mph - N/A   Scattered Clouds
5:20 AM 50.0 °F - 48.2 °F 94% 30.15 in 6.2 mi North 9.2 mph - N/A   Scattered Clouds
5:50 AM 50.0 °F - 48.2 °F 94% 30.15 in 6.2 mi NNW 8.1 mph - N/A   Scattered Clouds
6:20 AM 51.8 °F - 48.2 °F 88% 30.15 in 6.2 mi North 8.1 mph - N/A   Scattered Clouds
6:50 AM 51.8 °F - 48.2 °F 88% 30.15 in 3.7 mi North 9.2 mph - N/A Rain Light Rain Showers
7:20 AM 53.6 °F - 50.0 °F 88% 30.18 in 3.7 mi Variable 4.6 mph - N/A Rain Light Rain Showers
7:50 AM 51.8 °F - 50.0 °F 94% 30.18 in 4.3 mi North 9.2 mph - N/A   Mostly Cloudy
8:00 AM 52 °F - 50 °F 89% 30.19 in 4 mi North 9.2 mph - - Rain Light Rain Showers
8:20 AM 51.8 °F - 50.0 °F 94% 30.18 in 3.7 mi NNW 11.5 mph - N/A   Mostly Cloudy
8:50 AM 51.8 °F - 50.0 °F 94% 30.18 in 4.3 mi NNW 9.2 mph - N/A   Mostly Cloudy
9:20 AM 55.4 °F - 46.4 °F 72% 30.18 in 6.2 mi NE 10.4 mph - N/A   Mostly Cloudy
9:50 AM 57.2 °F - 44.6 °F 63% 30.18 in 6.2 mi NE 11.5 mph - N/A   Mostly Cloudy
10:20 AM 57.2 °F - 44.6 °F 63% 30.18 in 6.2 mi NE 11.5 mph - N/A   Mostly Cloudy
10:50 AM 57.2 °F - 42.8 °F 59% 30.18 in 6.2 mi NNE 12.7 mph - N/A   Mostly Cloudy
11:20 AM 59.0 °F - 44.6 °F 59% 30.18 in 6.2 mi Variable 9.2 mph - N/A   Scattered Clouds
11:50 AM 60.8 °F - 44.6 °F 55% 30.15 in 6.2 mi Variable 9.2 mph - N/A   Scattered Clouds
12:50 PM 59.0 °F - 41.0 °F 51% 30.15 in 6.2 mi North 13.8 mph - N/A   Scattered Clouds
1:20 PM 59.0 °F - 39.2 °F 48% 30.15 in 6.2 mi North 15.0 mph - N/A   Scattered Clouds
1:50 PM 60.8 °F - 39.2 °F 45% 30.15 in 6.2 mi Variable 9.2 mph - N/A   Scattered Clouds
2:00 PM 61 °F - 39 °F 33% 30.17 in 6 mi NNE 9.2 mph - -   Partly Cloudy
2:20 PM 59.0 °F - 39.2 °F 48% 30.15 in 6.2 mi North 11.5 mph - N/A   Scattered Clouds
2:50 PM 57.2 °F - 41.0 °F 55% 30.15 in 6.2 mi North 11.5 mph - N/A   Scattered Clouds
3:20 PM 57.2 °F - 39.2 °F 51% 30.15 in 6.2 mi North 13.8 mph - N/A   Scattered Clouds
3:50 PM 55.4 °F - 42.8 °F 63% 30.15 in 6.2 mi North 13.8 mph - N/A   Mostly Cloudy
4:20 PM 53.6 °F - 44.6 °F 72% 30.15 in 6.2 mi North 13.8 mph - N/A   Mostly Cloudy
4:50 PM 53.6 °F - 42.8 °F 67% 30.15 in 6.2 mi North 11.5 mph - N/A   Mostly Cloudy
5:20 PM 53.6 °F - 42.8 °F 67% 30.15 in 6.2 mi North 8.1 mph - N/A   Mostly Cloudy
5:50 PM 55.4 °F - 42.8 °F 63% 30.15 in 6.2 mi North 9.2 mph - N/A   Mostly Cloudy
6:20 PM 53.6 °F - 42.8 °F 67% 30.15 in 6.2 mi North 10.4 mph - N/A   Mostly Cloudy
6:50 PM 51.8 °F - 42.8 °F 71% 30.15 in 6.2 mi NNW 9.2 mph - N/A   Mostly Cloudy
7:20 PM 51.8 °F - 42.8 °F 71% 30.15 in 6.2 mi NNW 9.2 mph - N/A   Mostly Cloudy
7:50 PM 51.8 °F - 42.8 °F 71% 30.15 in 6.2 mi North 8.1 mph - N/A   Mostly Cloudy
8:00 PM 52 °F - 42 °F 59% 30.17 in 6 mi North 8.1 mph - -   Partly Cloudy
8:20 PM 51.8 °F - 42.8 °F 71% 30.15 in 6.2 mi Variable 6.9 mph - N/A   Scattered Clouds
8:50 PM 53.6 °F - 44.6 °F 72% 30.15 in 6.2 mi NE 9.2 mph - N/A   Scattered Clouds
9:20 PM 53.6 °F - 44.6 °F 72% 30.15 in 6.2 mi NE 12.7 mph - N/A   Scattered Clouds
9:50 PM 53.6 °F - 42.8 °F 67% 30.15 in 6.2 mi NE 11.5 mph - N/A   Scattered Clouds
10:20 PM 53.6 °F - 42.8 °F 67% 30.15 in 6.2 mi NE 10.4 mph - N/A   Scattered Clouds
10:50 PM 53.6 °F - 44.6 °F 72% 30.15 in 6.2 mi NNE 9.2 mph - N/A   Scattered Clouds
11:20 PM 53.6 °F - 44.6 °F 72% 30.15 in 6.2 mi ENE 9.2 mph - N/A   Scattered Clouds
11:50 PM 53.6 °F - 42.8 °F 67% 30.15 in 6.2 mi NE 8.1 mph - N/A   Scattered Clouds